Regional Weather Roundup
Issued by NWS

Home | Current Version | Previous Version | Text Only | Print | Product List | Glossary On
Versions: 1 2 3 4 5 6 7 8 9 10 11 12 13 14 15 16 17 18 19 20 21 22 23 24 25 26 27 28 29 30 31 32 33 34 35 36 37 38 39 40 41 42 43 44 45 46 47 48 49 50
000
ASUS44 KOUN 211810
RWROK

WEATHER ROUNDUP FOR OKLAHOMA
NATIONAL WEATHER SERVICE NORMAN OK
100 PM CDT THU AUG 21 2014

NOTE: "FAIR" INDICATES FEW OR NO CLOUDS BELOW 12,000 FEET WITH NO
      SIGNIFICANT WEATHER AND/OR OBSTRUCTIONS TO VISIBILITY.

OKZ001>007-009>012-014-015-017-211900-
NORTHWEST OKLAHOMA AND THE PANHANDLE

CITY           SKY/WX    TMP DP  RH WIND       PRES   REMARKS
GAGE           SUNNY     95  64  35 SW22G31   29.93F HX  97
6HR MIN TEMP:  76; 6HR MAX TEMP:  95;

ENID/WOODRING  MOSUNNY   97  68  38 S20G29    29.92F HX 101
$$

OKZ016-021>023-033>039-044-045-211900-
SOUTHWEST OKLAHOMA

CITY           SKY/WX    TMP DP  RH WIND       PRES   REMARKS
LAWTON/REGL    MOSUNNY   97  67  37 S13G22    29.95F HX 101
6HR MIN TEMP:  78; 6HR MAX TEMP:  97;

LAWTON/FT SILL MOSUNNY   96  69  41 SW15G23   29.94F HX 101
FREDERICK      SUNNY     98  68  37 SW21G30   29.92F HX 103
CLINTON        SUNNY     94  67  41 S18G26    29.98F HX  97
HOBART         MOSUNNY   95  68  41 SW25G31   29.96F HX  99
ALTUS AFB      SUNNY     96  69  40 S18G25    29.95F HX 102
$$

OKZ018>020-024>031-211900-
CENTRAL OKLAHOMA

CITY           SKY/WX    TMP DP  RH WIND       PRES   REMARKS
OKLAHOMA CITY  MOSUNNY   94  69  44 S14       29.97F HX  99
6HR MIN TEMP:  73; 6HR MAX TEMP:  94;

OKC/WILEY POST SUNNY     94  70  45 SW17G24   29.96F HX 100
OKC/TINKER AFB SUNNY     93  70  46 S17       29.98F HX  98
STILLWATER     SUNNY     96  69  41 S14G25    29.95F HX 102
GUTHRIE        SUNNY     94  70  45 S17G25    29.95F HX 100
$$

OKZ008-013-054>072-211900-
NORTHEAST OKLAHOMA

CITY           SKY/WX    TMP DP  RH WIND       PRES   REMARKS
TULSA          MOSUNNY   93  72  50 S15G23    29.95F HX 101
6HR MIN TEMP:  78; 6HR MAX TEMP:  93;

TULSA/JONES    SUNNY     93  71  48 S16G22    29.97F HX 100
PONCA CITY     SUNNY     94  70  45 S12G23    29.93F HX 100
BARTLESVILLE   SUNNY     96  72  45 S10G20    29.96F HX 104
MUSKOGEE       SUNNY     89  73  59 S10G21    30.02F HX  97
$$

OKZ032-040>043-046>053-073>077-211900-
SOUTH CENTRAL/SOUTHEAST OKLAHOMA

CITY           SKY/WX    TMP DP  RH WIND       PRES   REMARKS
ARDMORE/DWNTWN SUNNY     90  68  48 S9        30.00F HX  93
MCALESTER      SUNNY     89  73  59 S13G20    30.03F HX  97
$$



USA.gov is the U.S. government's official web portal to all federal, state and local government web resources and services.